Location: Koslow
(50.3020°N, 18.5663°E)
Time: 02:46:56
(UTC+00:00)

Cosmos 489 Rocket - Visible Passes

Search period start: 04 August 2021 00:00
Search period end: 14 August 2021 00:00
Orbit: 952 x 984 km, 74.0° (Epoch: 03 August)

Date Brightness Start Highest point End Pass type
(mag) Time Alt. Az. Time Alt. Az. Time Alt. Az.
04 Aug 6.3 19:02:15 10° E 19:03:35 11° E 19:04:54 10° ENE visible
04 Aug 4.6 20:44:22 21° S 20:48:39 60° ESE 20:54:54 10° NNE visible
04 Aug 6.0 22:29:48 10° WSW 22:35:28 33° NW 22:41:13 10° NNE visible
05 Aug 7.2 00:22:20 10° NW 00:24:11 11° NNW 00:26:01 10° N visible
05 Aug 5.8 19:22:00 10° SE 19:26:14 20° E 19:30:35 10° NE visible
05 Aug 4.5 21:06:25 15° SSW 21:11:51 86° WNW 21:18:16 10° NNE visible
05 Aug 6.6 22:54:22 10° W 22:59:16 23° NW 23:04:12 10° N visible
06 Aug 5.2 19:43:54 12° SSE 19:49:03 33° E 19:54:39 10° NE visible
06 Aug 5.1 21:29:02 10° SW 21:35:13 54° WNW 21:41:30 10° NNE visible
06 Aug 7.0 23:19:27 10° WNW 23:23:15 16° NW 23:27:04 10° N visible
07 Aug 4.6 20:05:55 10° S 20:12:03 55° ESE 20:18:15 10° NNE visible
07 Aug 5.9 21:53:02 10° WSW 21:58:48 35° NW 22:04:36 10° NNE visible
07 Aug 7.2 23:45:15 10° NW 23:47:25 12° NNW 23:49:35 10° N visible
08 Aug 5.9 18:45:36 10° SE 18:49:41 18° E 18:53:47 10° NE visible
08 Aug 4.5 20:28:52 10° SSW 20:35:13 89° ESE 20:41:39 10° NNE visible
08 Aug 6.6 22:17:31 10° W 22:22:33 24° NW 22:27:38 10° N visible
09 Aug 5.3 19:07:04 10° SSE 19:12:28 31° E 19:17:57 10° NE visible
09 Aug 5.1 20:52:20 10° SW 20:58:35 58° WNW 21:04:53 10° NNE visible
09 Aug 7.0 22:42:31 10° WNW 22:46:30 17° NW 22:50:31 10° N visible
10 Aug 7.7 02:25:16 10° NNE 02:26:19 10° NNE 02:27:21 10° NNE visible
10 Aug 4.7 19:29:22 10° S 19:35:27 51° ESE 19:41:36 10° NNE visible
10 Aug 5.9 21:16:16 10° WSW 21:22:07 38° NW 21:28:02 10° NNE visible
10 Aug 7.3 23:08:10 10° NW 23:10:39 12° NNW 23:13:08 10° N visible
11 Aug 7.4 02:47:19 10° N 02:50:33 14° NNE 02:53:46 10° ENE visible
11 Aug 4.5 19:52:15 10° SSW 19:58:36 84° ESE 20:05:01 10° NNE visible
11 Aug 6.6 21:40:41 10° W 21:45:50 25° NW 21:51:03 10° N visible
12 Aug 5.0 20:15:39 10° SW 20:21:56 62° WNW 20:28:17 10° NNE visible
12 Aug 7.1 22:05:36 10° W 22:09:46 18° NW 22:13:58 10° N visible
13 Aug 4.8 18:52:51 10° S 18:58:52 48° ESE 19:04:56 10° NNE visible
13 Aug 5.8 20:39:30 10° WSW 20:45:26 40° NW 20:51:25 10° NNE visible
13 Aug 7.3 22:31:08 10° NW 22:33:52 13° NNW 22:36:38 10° N visible
